Overview Statistics Trail Chart Weather Telemetry Raw packets
 

This is the latest recevied weather packets stored in our database for station/object N5CSU. If no packets are shown the sender has not sent any weather packets the latest 10 day(s).

<< 101 102 103 104 105 106 107 >>
Time Temp. Humidity Pressure Rain* Wind** Luminosity Snow
1787858611 36.67° C 44% 1014.7 hPa 0 mm - 134 W/m² -
1787858306 37.22° C 43% 1015.1 hPa 0 mm - 213 W/m² -
1787857996 37.22° C 43% 1015.1 hPa 0 mm - 76 W/m² -
1787857692 37.22° C 44% 1014.9 hPa 0 mm - 29 W/m² -
1787857388 37.22° C 44% 1015.2 hPa 0 mm - 46 W/m² -
1787857084 37.22° C 45% 1015.2 hPa 0 mm - 26 W/m² -
1787856780 37.22° C 45% 1015.3 hPa 0 mm - 59 W/m² -
1787856474 36.67° C 45% 1015.4 hPa 0 mm - 84 W/m² -
1787856170 36.67° C 46% 1015.5 hPa 0 mm - 45 W/m² -
1787855870 37.22° C 46% 1015.4 hPa 0 mm - 26 W/m² -
1787855564 36.67° C 46% 1015.4 hPa 0 mm - 241 W/m² -
1787855260 36.67° C 47% 1015.3 hPa 0 mm - 314 W/m² -
1787854956 36.67° C 46% 1015.5 hPa 0 mm - 341 W/m² -
1787854651 36.67° C 48% 1015.6 hPa 0 mm - 165 W/m² -
1787854345 36.67° C 47% 1015.7 hPa 0 mm - 216 W/m² -
1787854040 36.11° C 49% 1015.6 hPa 0 mm - 307 W/m² -
1787853734 36.11° C 48% 1015.7 hPa 0 mm - 97 W/m² -
1787853132 35.56° C 50% 1015.9 hPa 0 mm - 527 W/m² -
1787852827 35.56° C 49% 1016 hPa 0 mm - 513 W/m² -
1787852526 35.56° C 50% 1015.9 hPa 0 mm - 101 W/m² -
1787852220 35.56° C 51% 1016 hPa 0 mm - 291 W/m² -
1787851915 35.56° C 51% 1016 hPa 0 mm - 26 W/m² -
1787851608 35.56° C 51% 1016.1 hPa 0 mm - 61 W/m² -
1787851303 35° C 52% 1015.9 hPa 0 mm - 73 W/m² -
1787850998 35° C 54% 1016 hPa 0 mm - 63 W/m² -

* Rain latest hour (hover to see other rain measurements)
** Current wind speed in m/s (hover to see current wind gust speed)